Preview of NWS' New Version of Forecast
This preview is not operational and should not be used for support decisions.

Regional Weather Roundup (RWR)

Issued by National Weather Service (NWS)

                            
000
ASPQ40 PGUM 210710
RWRPQ 
WEATHER ROUNDUP FOR THE MARIANAS AND MICRONESIA
NATIONAL WEATHER SERVICE TIYAN GU
500 PM CHST SUN APR 21 2019

GUZ001>004-210800-
MARIANA ISLANDS-
  
CITY           SKY/WX    TMP DP  RH WIND       PRES   REMARKS
GUAM AIRPORT   MOSUNNY   84  72  65 E16       29.83S                  
ANDERSEN AFB   PTSUNNY   82  72  69 E12       29.83F                  
ROTA AIRPORT   MOSUNNY   81  70  69 E15       29.82S                  
TINIAN AP      MOSUNNY   86  73  66 E16       29.81F HX  93           
SAIPAN AP      SUNNY     84  72  65 E15       29.82F                  

$$

PMZ161-210800-
REPUBLIC OF PALAU-
  
CITY           SKY/WX    TMP DP  RH WIND       PRES   REMARKS
KOROR AP       PTSUNNY   86  73  66 E12G17    29.76F HX  93           
KOROR WSO      NOT AVBL                                               

$$

PMZ171>174-210800-
FEDERATED STATES OF MICRONESIA-
  
CITY           SKY/WX    TMP DP  RH WIND       PRES   REMARKS
YAP AIRPORT    PTSUNNY   88  77  70 VRB6      29.78S HX 100           
CHUUK AP       PTSUNNY   84  81  89 VRB6      29.75F HX  98           
POHNPEI AP     CLOUDY    84  77  79 E12       29.76R HX  94           
POHNPEI WSO    CLOUDY    84  73  70 NE6       29.79R HX  91           
KOSRAE AP      NOT AVBL                                               

$$

PMZ181-210800-
REPUBLIC OF THE MARSHALL ISLANDS-
  
CITY           SKY/WX    TMP DP  RH WIND       PRES   REMARKS
KWAJALEIN AP   PTCLDY    82  75  78 E18       29.83R                  
MAJURO AP      MOCLDY    84  77  79 E17       29.83R HX  94           
MAJURO WSO     MOCLDY    81  75  83 E12       29.81R                  

$$